Location: Hobi?a Gr?di?te
(45.4833°N, 22.7833°E)
Time: 10:40:21
(UTC+00:00)

Cosmos 1867 - Pass Details

Date: 28 January 2023
Orbit: 778 x 797 km, 65.0° (Epoch: 20 March)

Event Time Altitude Azimuth Distance (km) Brightness Sun altitude
Rises 15:53:49 0° 326° (NW) 3,310 7.0 -4.8°
Reaches altitude 10° 15:56:18 10° 331° (NNW) 2,378 6.2 -5.2°
Maximum altitude 16:01:41 55° 49° (NE) 960 3.7 -6.1°
Drops below altitude 10° 16:07:00 10° 127° (SE) 2,361 5.7 -7.0°
Sets 16:09:28 0° 132° (SE) 3,285 6.5 -7.4°
